Location: Newark
(46.3167°N, 7.8500°E)
Time: 02:02:58
(UTC+00:00)

N. Korean satellite - Visible Passes

Search period start: 26 February 2020 00:00
Search period end: 07 March 2020 00:00
Orbit: 456 x 505 km, 97.2° (Epoch: 25 February)

Date Brightness Start Highest point End Pass type
(mag) Time Alt. Az. Time Alt. Az. Time Alt. Az.
26 Feb 9.2 04:34:49 10° NE 04:37:52 24° E 04:40:52 10° SSE visible
27 Feb 10.1 04:10:26 10° ENE 04:12:05 13° E 04:13:44 10° ESE visible
28 Feb 6.8 05:16:33 10° NNE 05:20:17 77° ESE 05:23:57 10° S visible
29 Feb 8.3 04:51:12 10° NNE 04:54:40 36° E 04:58:04 10° SSE visible
01 Mar 9.6 04:26:15 10° NE 04:28:58 19° E 04:31:37 10° SE visible
02 Mar 6.6 05:33:17 10° N 05:36:58 66° WNW 05:40:35 10° SSW visible
03 Mar 7.3 05:07:45 10° NNE 05:11:25 59° E 05:15:00 10° S visible
04 Mar 8.8 04:42:30 10° NNE 04:45:45 29° E 04:48:57 10° SSE visible
05 Mar 9.9 04:17:48 10° NE 04:20:00 15° E 04:22:12 10° SE visible
06 Mar 6.6 05:24:24 10° N 05:28:06 84° WNW 05:31:43 10° SSW visible
